KBWP

Details ICAO KBWP
Name HARRY STERN
Region United States
Timezone America/Chicago (UTC-5.0)
Plans Departing 1
Arriving 1
Stats Elevation 968 ft / 295 m (AMSL)
Location 46.244080° -96.607441°
Runways 2
Magnetic Variation 2.780° E
Sunrise 2018-05-24 10:45:34 UTC / 2018-05-24 05:45:34 Local
Sunset 2018-05-25 02:03:53 UTC / 2018-05-24 21:03:53 Local
Advertisement - Login to hide

Runways

ID Width Length Bearing (true) Bearing (mag) Surface Threshold Offset Overrun Length
03 150 ft / 46 m 3,278 ft / 999 m 37.54° 34.76° Grass 0 ft / 0 m 0 ft / 0 m
15 75 ft / 23 m 5,101 ft / 1,555 m 155.99° 153.21° Asphalt 0 ft / 0 m 0 ft / 0 m
21 150 ft / 46 m 3,278 ft / 999 m 217.54° 214.76° Grass 0 ft / 0 m 0 ft / 0 m
33 75 ft / 23 m 5,101 ft / 1,555 m 336.00° 333.22° Asphalt 0 ft / 0 m 0 ft / 0 m

Map

Weather


0- 5 10 15 20 25 30 35+ Temperature / ° C

Clouds and Precipitation
Forecast for 2018-05-24 18:00 UTC. Updated 3 hours ago

Ground ~20,000 ft ~40,000 ft Winds

METAR

KBWP 241950Z AUTO 23012G16KT 10SM CLR 31/10 A2981 RMK AO1

TAF

Not found

Frequencies

Recorded 127.87 MHz AWOS 3
Unicom 123.00 MHz CTAF/UNICOM
Warning: Do not use this data for real-world aviation or navigation. No guarantee of current accuracy is given.